EZY31 EDDH-LPMA

Flight info

Callsign EZY31
Flight time N/A
Altitude 38000
Route WSN5G WSN N125 ONTAZ DCT NIK DCT KOVIN DCT NIDUV DCT KIHVI UN872 ERIGA UN741 AZFIC DCT LOTEE DCT PINEK DCT LIDRO
Aircraft A20N/M-SDE2E3FGHIRWXY/LB1

Departure

Time 2026-05-06 15:10
Airport Hamburg Helmut Schmidt Airport (EDDH)

Arrival

Time N/A
Airport Cristiano Ronaldo International Airport (LPMA)
Time Latitude Longitude Altitude Speed Heading
2026-05-06 14:34 53.63450 10.00313 51 ft 0 kts 89°
2026-05-06 15:02 53.63449 10.00279 47 ft 3 kts 87°
2026-05-06 15:02 53.63449 10.00234 47 ft 3 kts 113°
2026-05-06 15:03 53.63458 10.00217 45 ft 0 kts 176°
2026-05-06 15:06 53.63457 10.00217 47 ft 0 kts 176°
2026-05-06 15:06 53.63433 10.00221 48 ft 7 kts 174°
2026-05-06 15:06 53.63360 10.00231 48 ft 15 kts 176°
2026-05-06 15:06 53.63238 10.00245 49 ft 17 kts 174°
2026-05-06 15:07 53.63116 10.00259 47 ft 16 kts 176°
2026-05-06 15:07 53.63044 10.00236 46 ft 12 kts 207°
2026-05-06 15:07 53.62956 10.00143 44 ft 10 kts 212°
2026-05-06 15:07 53.62900 10.00084 44 ft 8 kts 212°
2026-05-06 15:08 53.62845 10.00010 45 ft 9 kts 219°
2026-05-06 15:08 53.62824 9.99984 45 ft 0 kts 216°
2026-05-06 15:08 53.62821 9.99979 45 ft 4 kts 219°
2026-05-06 15:09 53.62764 9.99927 46 ft 8 kts 206°
2026-05-06 15:09 53.62743 9.99895 46 ft 10 kts 249°
2026-05-06 15:09 53.62791 9.99806 45 ft 27 kts 333°
2026-05-06 15:09 53.63224 9.99432 48 ft 110 kts 333°
2026-05-06 15:10 53.64095 9.98640 160 ft 162 kts 338°
2026-05-06 15:10 53.65112 9.97752 812 ft 176 kts 342°
2026-05-06 15:10 53.66276 9.96844 1531 ft 194 kts 342°
2026-05-06 15:10 53.67526 9.95861 2400 ft 213 kts 345°
2026-05-06 15:11 53.69028 9.95490 2889 ft 237 kts 12°
2026-05-06 15:11 53.70843 9.95541 3026 ft 287 kts 357°
2026-05-06 15:11 53.72897 9.94426 3033 ft 336 kts 338°
2026-05-06 15:11 53.74934 9.92002 3033 ft 380 kts 321°
2026-05-06 15:12 53.76712 9.88568 3543 ft 391 kts 308°
2026-05-06 15:12 53.77728 9.84491 3769 ft 377 kts 282°
2026-05-06 15:12 53.77473 9.80094 2411 ft 379 kts 251°
2026-05-06 15:12 53.76244 9.76453 2579 ft 338 kts 230°
2026-05-06 15:13 53.74877 9.73149 3046 ft 354 kts 243°
2026-05-06 15:13 53.74027 9.69131 3079 ft 372 kts 252°
2026-05-06 15:13 53.73039 9.65042 3331 ft 380 kts 237°
2026-05-06 15:13 53.71293 9.61710 3762 ft 382 kts 216°
2026-05-06 15:14 53.69045 9.59393 4121 ft 375 kts 204°
2026-05-06 15:14 53.66817 9.57463 4298 ft 342 kts 208°
2026-05-06 15:14 53.64908 9.55275 4097 ft 321 kts 216°
2026-05-06 15:14 53.63277 9.52867 3874 ft 303 kts 223°
2026-05-06 15:15 53.61924 9.50297 3688 ft 285 kts 230°
2026-05-06 15:15 53.60747 9.47678 3302 ft 277 kts 233°
2026-05-06 15:15 53.59634 9.45051 3088 ft 279 kts 234°
2026-05-06 15:15 53.58508 9.42368 3162 ft 283 kts 234°
2026-05-06 15:16 53.57366 9.39665 3822 ft 282 kts 233°
2026-05-06 15:16 53.56240 9.37013 4833 ft 279 kts 233°
2026-05-06 15:16 53.55118 9.34394 5660 ft 281 kts 233°
2026-05-06 15:16 53.53968 9.31723 6631 ft 283 kts 233°
2026-05-06 15:17 53.52802 9.29021 7565 ft 286 kts 233°
2026-05-06 15:17 53.51621 9.26294 8518 ft 290 kts 234°
2026-05-06 15:17 53.50430 9.23549 9408 ft 295 kts 234°
2026-05-06 15:17 53.49216 9.20744 10027 ft 296 kts 234°
2026-05-06 15:18 53.48001 9.17936 10821 ft 298 kts 234°
2026-05-06 15:18 53.46784 9.15121 11725 ft 300 kts 233°
2026-05-06 15:18 53.45547 9.12265 12557 ft 304 kts 233°
2026-05-06 15:18 53.44297 9.09383 13447 ft 307 kts 232°
2026-05-06 15:19 53.43030 9.06471 14247 ft 310 kts 232°
2026-05-06 15:19 53.41770 9.03582 15058 ft 311 kts 232°
2026-05-06 15:19 53.40475 9.00616 15858 ft 313 kts 232°
2026-05-06 15:19 53.39200 8.97703 16638 ft 315 kts 232°
2026-05-06 15:20 53.37902 8.94739 17394 ft 317 kts 232°
2026-05-06 15:20 53.36588 8.91740 18140 ft 320 kts 232°
2026-05-06 15:20 53.35291 8.88706 18772 ft 323 kts 237°
2026-05-06 15:20 53.34231 8.85359 19401 ft 327 kts 246°
2026-05-06 15:21 53.33441 8.81781 20013 ft 330 kts 249°
2026-05-06 15:21 53.32657 8.78156 20643 ft 333 kts 249°
2026-05-06 15:21 53.31854 8.74498 21248 ft 336 kts 249°
2026-05-06 15:21 53.31049 8.70858 21852 ft 338 kts 249°
2026-05-06 15:22 53.30222 8.67133 22447 ft 341 kts 249°
2026-05-06 15:22 53.29393 8.63396 23020 ft 344 kts 249°
2026-05-06 15:22 53.28578 8.59680 23569 ft 347 kts 249°
2026-05-06 15:22 53.27748 8.55880 24049 ft 349 kts 249°
2026-05-06 15:23 53.26911 8.52058 24519 ft 352 kts 249°
2026-05-06 15:23 53.26072 8.48210 24987 ft 354 kts 250°
2026-05-06 15:23 53.25310 8.44297 25471 ft 357 kts 252°
2026-05-06 15:23 53.24583 8.40307 25955 ft 360 kts 252°
2026-05-06 15:24 53.23852 8.36289 26413 ft 363 kts 252°
2026-05-06 15:24 53.23108 8.32257 26872 ft 365 kts 252°
2026-05-06 15:24 53.22349 8.28202 27267 ft 368 kts 251°
2026-05-06 15:24 53.21574 8.24104 27674 ft 370 kts 251°
2026-05-06 15:25 53.20816 8.20114 28069 ft 373 kts 251°
2026-05-06 15:25 53.20029 8.15987 28463 ft 375 kts 251°
2026-05-06 15:25 53.19233 8.11820 28833 ft 377 kts 251°
2026-05-06 15:25 53.18439 8.07641 29218 ft 380 kts 251°
2026-05-06 15:26 53.17644 8.03420 29588 ft 382 kts 251°
2026-05-06 15:26 53.16847 7.99182 29946 ft 385 kts 251°
2026-05-06 15:26 53.16052 7.94966 30277 ft 386 kts 251°
2026-05-06 15:26 53.15245 7.90707 30639 ft 387 kts 251°
2026-05-06 15:27 53.14429 7.86409 30983 ft 389 kts 251°
2026-05-06 15:27 53.13614 7.82131 31335 ft 389 kts 251°
2026-05-06 15:27 53.12791 7.77823 31674 ft 391 kts 251°
2026-05-06 15:27 53.11963 7.73496 31996 ft 392 kts 251°
2026-05-06 15:28 53.11133 7.69171 32333 ft 393 kts 251°
2026-05-06 15:28 53.10300 7.64839 32633 ft 394 kts 251°
2026-05-06 15:28 53.09460 7.60488 32946 ft 395 kts 251°
2026-05-06 15:28 53.08615 7.56123 33235 ft 397 kts 251°
2026-05-06 15:29 53.07769 7.51761 33526 ft 398 kts 251°
2026-05-06 15:29 53.06914 7.47366 33809 ft 399 kts 251°
2026-05-06 15:29 53.06057 7.42972 34041 ft 400 kts 251°
2026-05-06 15:29 53.05206 7.38617 34236 ft 402 kts 251°
2026-05-06 15:30 53.04343 7.34206 34454 ft 403 kts 251°
2026-05-06 15:30 53.03468 7.29747 34644 ft 405 kts 251°
2026-05-06 15:30 53.02535 7.25339 34825 ft 406 kts 245°
2026-05-06 15:30 53.01237 7.21160 34995 ft 407 kts 237°
2026-05-06 15:31 52.99570 7.17355 35186 ft 408 kts 229°
2026-05-06 15:31 52.97623 7.13935 35360 ft 409 kts 226°
2026-05-06 15:31 52.95638 7.10529 35548 ft 411 kts 226°
2026-05-06 15:32 52.91666 7.03655 35873 ft 414 kts 226°
2026-05-06 15:32 52.89669 7.00198 36034 ft 415 kts 226°
2026-05-06 15:32 52.87670 6.96745 36197 ft 417 kts 226°
2026-05-06 15:32 52.85691 6.93334 36353 ft 418 kts 226°
2026-05-06 15:33 52.83645 6.89816 36511 ft 420 kts 226°
2026-05-06 15:33 52.81608 6.86317 36662 ft 421 kts 226°
2026-05-06 15:33 52.79573 6.82829 36801 ft 422 kts 226°
2026-05-06 15:33 52.77558 6.79378 36947 ft 423 kts 226°
2026-05-06 15:34 52.75513 6.75883 37083 ft 425 kts 226°
2026-05-06 15:34 52.73460 6.72378 37235 ft 426 kts 226°
2026-05-06 15:34 52.71393 6.68854 37375 ft 427 kts 226°
2026-05-06 15:34 52.69333 6.65348 37489 ft 428 kts 226°
2026-05-06 15:35 52.67254 6.61814 37612 ft 429 kts 226°
2026-05-06 15:35 52.65170 6.58276 37743 ft 430 kts 226°
2026-05-06 15:35 52.63082 6.54738 37853 ft 431 kts 226°
2026-05-06 15:35 52.60984 6.51187 37878 ft 432 kts 226°
2026-05-06 15:36 52.56799 6.44119 37877 ft 432 kts 226°
2026-05-06 15:36 52.52604 6.37057 37878 ft 432 kts 226°
2026-05-06 15:37 52.48402 6.30002 37892 ft 432 kts 226°
2026-05-06 15:37 52.44226 6.23010 37897 ft 432 kts 226°
2026-05-06 15:38 52.40019 6.15989 37889 ft 432 kts 226°
2026-05-06 15:38 52.35803 6.08971 37894 ft 432 kts 226°
2026-05-06 15:39 52.31577 6.01959 37890 ft 432 kts 225°
2026-05-06 15:39 52.27353 5.94969 37868 ft 433 kts 225°
2026-05-06 15:40 52.23146 5.88027 37870 ft 433 kts 225°
2026-05-06 15:40 52.18905 5.81049 37890 ft 433 kts 225°
2026-05-06 15:41 52.14656 5.74079 37897 ft 433 kts 225°
2026-05-06 15:41 52.10397 5.67110 37887 ft 434 kts 225°
2026-05-06 15:42 52.07654 5.62635 37867 ft 434 kts 225°
2026-05-06 15:42 52.04065 5.56791 37884 ft 434 kts 225°
2026-05-06 15:43 51.99795 5.49854 37886 ft 434 kts 225°
2026-05-06 15:43 51.95508 5.42911 37887 ft 435 kts 225°
2026-05-06 15:44 51.91226 5.35997 37886 ft 435 kts 225°
2026-05-06 15:44 51.86960 5.29127 37877 ft 435 kts 225°
2026-05-06 15:45 51.82630 5.22174 37888 ft 436 kts 225°
2026-05-06 15:45 51.78357 5.15331 37889 ft 436 kts 225°
2026-05-06 15:46 51.74043 5.08443 37884 ft 436 kts 225°
2026-05-06 15:46 51.69715 5.01552 37887 ft 437 kts 225°
2026-05-06 15:47 51.65400 4.94701 37884 ft 437 kts 225°
2026-05-06 15:47 51.61062 4.87833 37887 ft 437 kts 225°
2026-05-06 15:48 51.56714 4.80970 37876 ft 437 kts 225°
2026-05-06 15:48 51.52400 4.74179 37875 ft 438 kts 225°
2026-05-06 15:49 51.48048 4.67346 37878 ft 438 kts 225°
2026-05-06 15:49 51.43690 4.60524 37876 ft 438 kts 225°
2026-05-06 15:50 51.39319 4.53702 37884 ft 439 kts 224°
2026-05-06 15:50 51.34947 4.46897 37883 ft 439 kts 224°
2026-05-06 15:51 51.30564 4.40093 37883 ft 439 kts 224°
2026-05-06 15:51 51.26205 4.33337 37887 ft 439 kts 224°
2026-05-06 15:52 51.21786 4.26520 37887 ft 440 kts 224°
2026-05-06 15:52 51.17257 4.20079 37887 ft 440 kts 216°
2026-05-06 15:53 51.11912 4.15280 37882 ft 443 kts 203°
2026-05-06 15:53 51.06211 4.11558 37884 ft 443 kts 204°
2026-05-06 15:54 51.00529 4.07789 37887 ft 443 kts 204°
2026-05-06 15:54 50.94853 4.04033 37882 ft 443 kts 204°
2026-05-06 15:55 50.89159 4.00278 37889 ft 443 kts 204°
2026-05-06 15:55 50.83453 3.96526 37889 ft 443 kts 203°
2026-05-06 15:56 50.77765 3.92796 37891 ft 443 kts 203°
2026-05-06 15:56 50.72109 3.89098 37887 ft 443 kts 203°
2026-05-06 15:57 50.66412 3.85382 37891 ft 443 kts 203°
2026-05-06 15:57 50.60697 3.81663 37890 ft 444 kts 203°
2026-05-06 15:58 50.54993 3.77962 37891 ft 444 kts 203°
2026-05-06 15:58 50.49292 3.74273 37890 ft 444 kts 203°
2026-05-06 15:59 50.43573 3.70581 37892 ft 444 kts 203°
2026-05-06 15:59 50.37862 3.66904 37894 ft 444 kts 203°
2026-05-06 16:00 50.32187 3.63261 37890 ft 444 kts 203°
2026-05-06 16:00 50.26474 3.59602 37894 ft 444 kts 203°
2026-05-06 16:01 50.20758 3.55949 37896 ft 444 kts 203°
2026-05-06 16:01 50.15039 3.52303 37900 ft 444 kts 203°
2026-05-06 16:02 50.09313 3.48664 37898 ft 444 kts 203°
2026-05-06 16:02 50.03592 3.45038 37899 ft 444 kts 203°
2026-05-06 16:03 49.97921 3.41453 37896 ft 444 kts 203°
2026-05-06 16:03 49.92188 3.37837 37898 ft 444 kts 203°
2026-05-06 16:04 49.86462 3.34236 37896 ft 444 kts 203°
2026-05-06 16:04 49.80733 3.30642 37894 ft 444 kts 202°
2026-05-06 16:05 49.75030 3.27073 37895 ft 444 kts 202°
2026-05-06 16:05 49.69291 3.23491 37896 ft 445 kts 202°
2026-05-06 16:06 49.63558 3.19922 37902 ft 445 kts 202°
2026-05-06 16:06 49.57817 3.16356 37900 ft 445 kts 202°
2026-05-06 16:07 49.52087 3.12724 37890 ft 444 kts 208°
2026-05-06 16:07 49.49498 3.10162 37898 ft 444 kts 220°
2026-05-06 16:07 49.47333 3.06809 37899 ft 444 kts 232°
2026-05-06 16:08 49.44145 2.98691 37903 ft 445 kts 240°
2026-05-06 16:08 49.41087 2.90416 37897 ft 444 kts 240°
2026-05-06 16:09 49.38038 2.82232 37906 ft 445 kts 240°
2026-05-06 16:09 49.34963 2.74011 37901 ft 445 kts 240°
2026-05-06 16:10 49.31963 2.65706 37906 ft 445 kts 242°
2026-05-06 16:10 49.29055 2.57326 37911 ft 445 kts 241°
2026-05-06 16:11 49.26125 2.48977 37910 ft 445 kts 241°
2026-05-06 16:11 49.23180 2.40656 37913 ft 445 kts 241°
2026-05-06 16:12 49.20221 2.32326 37933 ft 445 kts 241°
2026-05-06 16:12 49.17231 2.24107 37939 ft 445 kts 240°
2026-05-06 16:13 49.14180 2.15896 37937 ft 445 kts 240°
2026-05-06 16:13 49.11128 2.07678 37941 ft 445 kts 240°
2026-05-06 16:14 49.08304 1.99291 37939 ft 445 kts 245°
2026-05-06 16:14 49.05746 1.90723 37934 ft 444 kts 245°
2026-05-06 16:15 49.03163 1.82144 37940 ft 445 kts 245°
2026-05-06 16:15 49.00585 1.73622 37933 ft 446 kts 245°
2026-05-06 16:16 48.97991 1.65079 37930 ft 444 kts 245°
2026-05-06 16:16 48.95389 1.56537 37924 ft 445 kts 245°
2026-05-06 16:17 48.92781 1.48003 37926 ft 445 kts 245°
2026-05-06 16:17 48.90161 1.39464 37929 ft 445 kts 244°
2026-05-06 16:18 48.87539 1.30946 37928 ft 446 kts 244°
2026-05-06 16:18 48.84909 1.22431 37933 ft 445 kts 244°
2026-05-06 16:19 48.82287 1.13969 37943 ft 446 kts 244°
2026-05-06 16:19 48.79641 1.05458 37942 ft 447 kts 244°
2026-05-06 16:20 48.76990 0.96960 37939 ft 446 kts 244°
2026-05-06 16:20 48.74278 0.88495 37942 ft 446 kts 240°
2026-05-06 16:21 48.71043 0.80458 37938 ft 446 kts 238°
2026-05-06 16:21 48.67803 0.72446 37947 ft 446 kts 238°
2026-05-06 16:22 48.64577 0.64492 37947 ft 446 kts 238°
2026-05-06 16:22 48.61321 0.56499 37942 ft 446 kts 238°
2026-05-06 16:23 48.58062 0.48524 37945 ft 447 kts 238°
2026-05-06 16:23 48.54800 0.40567 37952 ft 447 kts 238°
2026-05-06 16:24 48.51522 0.32594 37949 ft 447 kts 238°
2026-05-06 16:24 48.48235 0.24624 37954 ft 447 kts 238°
2026-05-06 16:25 48.44950 0.16680 37963 ft 447 kts 238°
2026-05-06 16:25 48.41674 0.08784 37967 ft 448 kts 238°
2026-05-06 16:26 48.38374 0.00850 37966 ft 448 kts 238°
2026-05-06 16:26 48.34926 -0.06940 37966 ft 448 kts 233°
2026-05-06 16:27 48.31198 -0.14445 37971 ft 448 kts 233°
2026-05-06 16:27 48.27479 -0.21954 37970 ft 448 kts 233°
2026-05-06 16:28 48.23727 -0.29451 37970 ft 448 kts 232°
2026-05-06 16:28 48.19957 -0.36812 37959 ft 449 kts 232°
2026-05-06 16:29 48.16156 -0.44223 37965 ft 449 kts 232°
2026-05-06 16:29 48.12347 -0.51645 37979 ft 449 kts 232°
2026-05-06 16:30 48.09188 -0.57788 37965 ft 449 kts 232°
2026-05-06 16:30 48.04728 -0.66439 37970 ft 449 kts 232°
2026-05-06 16:31 48.00910 -0.73820 37969 ft 449 kts 232°
2026-05-06 16:31 47.97112 -0.81146 37957 ft 449 kts 232°
2026-05-06 16:32 47.93285 -0.88504 37960 ft 449 kts 232°
2026-05-06 16:32 47.89460 -0.95841 37973 ft 448 kts 232°
2026-05-06 16:33 47.85621 -1.03184 37975 ft 449 kts 232°
2026-05-06 16:34 47.79851 -1.14184 37967 ft 449 kts 232°
2026-05-06 16:34 47.76023 -1.21456 37952 ft 450 kts 232°
2026-05-06 16:35 47.72174 -1.28749 37935 ft 451 kts 232°
2026-05-06 16:35 47.68289 -1.36090 37934 ft 450 kts 232°
2026-05-06 16:36 47.64423 -1.43376 37955 ft 450 kts 231°
2026-05-06 16:36 47.60541 -1.50675 37959 ft 451 kts 231°
2026-05-06 16:37 47.56399 -1.57617 37960 ft 450 kts 228°
2026-05-06 16:37 47.52207 -1.64532 37953 ft 450 kts 228°
2026-05-06 16:38 47.48048 -1.71374 37949 ft 451 kts 228°
2026-05-06 16:38 47.43848 -1.78259 37953 ft 451 kts 228°